Location: Terra Rouge Observatory
(46.0000°N, 62.7500°W)
Time: 04:08:54
(UTC-03:00)

Amateur Radio Satellites - All Passes

Search period start: 27 April 2015 03:38
Search period end: 28 April 2015 03:38
Location: Terra Rouge Observatory, 46.0000°N, 62.7500°W

Satellite Date Start Highest point End Downlink Frequencies (MHz)
Time Altitude Azimuth
KKS-1 27 Apr 03:40:53 03:45:06 42° 262° (W) 03:49:20 437.445
ITUPSAT 1 27 Apr 03:42:43 03:43:52 11° 275° (W) 03:44:43 437.325
BEESAT 3 27 Apr 03:56:41 04:00:39 46° 312° (NW) 04:04:40 437.485
JAS-2 27 Apr 03:56:54 04:00:39 17° 83° (E) 04:04:24 435.910
DANDE 27 Apr 03:59:19 04:06:23 49° 72° (ENE) 04:14:35 436.750
BEESAT 2 27 Apr 03:59:48 04:03:50 51° 311° (NW) 04:07:54 435.950
Gurwin Techsat 1B 27 Apr 04:08:23 04:13:43 76° 287° (WNW) 04:19:02 435.225
HORYU 2 27 Apr 04:14:47 04:18:39 28° 94° (E) 04:22:34 437.375
MOZHAYETS 4 27 Apr 04:17:41 04:21:54 36° 69° (ENE) 04:26:10
STARS 27 Apr 04:33:18 04:36:35 20° 269° (W) 04:39:48 437.465
Oscar 19 27 Apr 04:33:40 04:36:51 16° 301° (WNW) 04:39:51 437.125/150
M-CUBED/EXP-1 PRIME 27 Apr 04:45:32 04:48:08 15° 54° (NE) 04:50:53 437.505
Cosmos 2499 27 Apr 04:48:28 04:55:00 28° 63° (ENE) 05:01:18 435.465 / 435.565
CUSAT 1 27 Apr 04:53:32 05:01:05 71° 263° (W) 05:09:23 437.405
GONETS M04 27 Apr 05:01:03 05:09:37 55° 269° (W) 05:18:03
AO-7 27 Apr 05:02:30 05:10:35 52° 101° (E) 05:18:41 29.400- 29.500
AIST 2 27 Apr 05:09:25 05:13:22 35° 315° (NW) 05:17:20 435.215
ITAMSAT 1 27 Apr 05:10:53 05:14:48 22° 299° (WNW) 05:18:37 435.822/435.867
AUBIESAT-1 27 Apr 05:24:51 05:28:51 28° 61° (ENE) 05:32:54 437.475
BEESAT 3 27 Apr 05:38:31 05:39:43 11° 334° (NNW) 05:40:49 437.485
JAS-2 27 Apr 05:40:22 05:46:51 80° 287° (WNW) 05:52:32 435.910
BEESAT 2 27 Apr 05:41:22 05:42:57 12° 333° (NNW) 05:44:26 435.950
DANDE 27 Apr 05:42:40 05:49:41 44° 268° (W) 05:57:31 436.750
Gurwin Techsat 1B 27 Apr 05:50:31 05:52:55 13° 304° (NW) 05:55:05 435.225
HORYU 2 27 Apr 05:51:17 05:55:20 32° 293° (WNW) 05:59:19 437.375
PRISM 27 Apr 05:54:05 05:56:55 19° 64° (ENE) 05:59:52 437.425
MOZHAYETS 4 27 Apr 05:55:14 05:59:14 27° 267° (W) 06:03:08
CUBESAT XI-V 27 Apr 05:58:26 06:02:32 33° 68° (ENE) 06:06:40 437.345
M-CUBED/EXP-1 PRIME 27 Apr 06:17:31 06:22:23 89° 59° (ENE) 06:27:12 437.505
CUTE-I 27 Apr 06:31:50 06:35:40 20° 90° (E) 06:39:39 437.470
CUSAT 1 27 Apr 06:38:26 06:42:58 16° 278° (W) 06:47:16 437.405
STRAND 1 27 Apr 06:40:29 06:45:19 45° 69° (ENE) 06:50:10 437.568
Cosmos 2499 27 Apr 06:41:10 06:48:54 63° 267° (W) 06:56:02 435.465 / 435.565
Cubesat XI-IV 27 Apr 06:41:37 06:45:55 25° 92° (E) 06:50:19 437.490
O/OREOS (USA 219) 27 Apr 06:50:55 06:53:48 17° 47° (NE) 06:56:46 437.305
AO-7 27 Apr 06:55:36 07:03:17 42° 301° (WNW) 07:10:53 29.400- 29.500
AUBIESAT-1 27 Apr 06:58:52 07:03:27 43° 257° (WSW) 07:08:00 437.475
GONETS M04 27 Apr 07:03:36 07:04:34 10° 290° (WNW) 07:04:48
JAS-2 27 Apr 07:27:05 07:30:51 16° 308° (NW) 07:34:10 435.910
PRISM 27 Apr 07:28:05 07:32:06 46° 261° (W) 07:36:07 437.425
CUBESAT XI-V 27 Apr 07:35:56 07:40:01 29° 266° (W) 07:44:02 437.345
M-CUBED/EXP-1 PRIME 27 Apr 07:55:41 07:57:53 13° 269° (W) 07:59:50 437.505
PCSat 27 Apr 08:03:55 08:08:41 34° 112° (ESE) 08:13:34 145.827
CUTE-I 27 Apr 08:10:58 08:16:13 59° 289° (WNW) 08:21:26 437.470
STRAND 1 27 Apr 08:20:30 08:24:44 25° 267° (W) 08:28:54 437.568
Cubesat XI-IV 27 Apr 08:21:11 08:26:19 49° 291° (WNW) 08:31:24 437.490
O/OREOS (USA 219) 27 Apr 08:29:17 08:33:47 70° 248° (WSW) 08:38:13 437.305
Cosmos 2499 27 Apr 08:38:22 08:40:25 11° 287° (WNW) 08:41:53 435.465 / 435.565
Cosmos 2491 27 Apr 08:41:30 08:48:25 26° 60° (ENE) 08:55:36 435.465 / 435.565
AO-7 27 Apr 08:50:59 08:54:01 12° 324° (NW) 08:56:42 29.400- 29.500
HO-68 27 Apr 08:54:29 09:00:06 25° 90° (E) 09:05:53 435.675
GOMX 1 27 Apr 08:56:19 09:00:39 27° 93° (E) 09:05:15 467.674
SEEDS 27 Apr 09:02:09 09:04:30 15° 88° (E) 09:07:00 437.485
CANX-2 27 Apr 09:12:30 09:16:02 25° 93° (E) 09:19:36 2200.000
AAUSAT CUBESAT 2 27 Apr 09:15:25 09:17:37 14° 88° (E) 09:19:59 437.432
BRITE-PL 27 Apr 09:16:40 09:21:43 59° 100° (E) 09:27:08 437.365/2234.400
CUTE 1.7 + AOD 2 27 Apr 09:21:16 09:24:57 28° 94° (E) 09:28:39 437.475
DOVE 4 27 Apr 09:24:49 09:29:27 34° 95° (E) 09:34:15 437.250
CUBEBUG 2 27 Apr 09:46:25 09:49:05 15° 87° (E) 09:51:57 437.445
TIGRISAT 27 Apr 09:46:43 09:50:00 20° 63° (ENE) 09:53:28 435.000
PCSat 27 Apr 09:46:51 09:52:02 43° 311° (NW) 09:57:13 145.827
YUBILEINY 27 Apr 09:51:22 09:57:44 24° 80° (E) 10:04:25 435.215
UNISAT 6 27 Apr 09:51:29 09:55:02 23° 64° (ENE) 09:58:44 437.425
CUTE-I 27 Apr 09:54:45 09:55:20 10° 307° (NW) 09:55:38 437.470
CINEMA 3 27 Apr 09:57:02 10:01:36 35° 95° (E) 10:06:14 145.822/145.860
DUCHIFAT 1 27 Apr 10:02:56 10:04:59 14° 61° (ENE) 10:07:13 145.980
POLYITAN 1 27 Apr 10:03:46 10:06:04 15° 62° (ENE) 10:08:31 437.675
COMPASS 1 27 Apr 10:08:18 10:12:29 60° 100° (E) 10:16:37 437.405
UWE-3 27 Apr 10:08:28 10:11:53 20° 90° (E) 10:15:24 435.000/436.395/437.385
AIST 2 27 Apr 10:13:13 10:14:36 11° 26° (NNE) 10:16:05 435.215
FUNcube-1 27 Apr 10:13:47 10:16:49 18° 89° (E) 10:19:59 145.935
DELFI C3 27 Apr 10:14:34 10:17:38 21° 92° (E) 10:20:47 145.870
QB50P1 27 Apr 10:20:22 10:23:27 21° 65° (ENE) 10:26:40 145.935-145.965
ANTELSAT 27 Apr 10:32:31 10:36:57 54° 72° (ENE) 10:41:33 437.575/2403.000
GOMX 1 27 Apr 10:34:03 10:38:56 45° 289° (WNW) 10:44:01 467.674
Oscar 11 27 Apr 10:34:28 10:38:41 46° 98° (E) 10:42:52 145.826/435.025
BEESAT 3 27 Apr 10:35:27 10:39:11 32° 44° (NE) 10:42:53 437.485
SEEDS 27 Apr 10:36:33 10:40:45 56° 287° (WNW) 10:44:52 437.485
Cosmos 2491 27 Apr 10:37:38 10:46:30 81° 263° (W) 10:55:20 435.465 / 435.565
BEESAT 2 27 Apr 10:39:05 10:42:46 30° 43° (NE) 10:46:25 435.950
ZACube-1 27 Apr 10:39:09 10:43:15 31° 94° (E) 10:47:22 437.345
HO-68 27 Apr 10:41:21 10:48:32 71° 291° (WNW) 10:55:38 435.675
QB50P2 27 Apr 10:46:09 10:50:02 37° 70° (ENE) 10:53:59 145.880/145.840
CANX-2 27 Apr 10:48:09 10:52:02 33° 291° (WNW) 10:55:51 2200.000
AAUSAT CUBESAT 2 27 Apr 10:49:33 10:53:41 56° 287° (WNW) 10:57:45 437.432
VELOX 1 27 Apr 10:51:00 10:52:19 11° 86° (E) 10:53:53 145.980
50 SAT 27 Apr 10:54:37 10:56:19 13° 88° (E) 10:58:11 437.505
BRITE-PL 27 Apr 10:56:03 10:59:57 22° 295° (WNW) 11:03:55 437.365/2234.400
CUTE 1.7 + AOD 2 27 Apr 10:57:06 11:00:53 30° 292° (WNW) 11:04:34 437.475
DOVE 4 27 Apr 11:02:32 11:07:12 36° 291° (WNW) 11:11:57 437.250
NANOSAT C BR1 27 Apr 11:02:49 11:06:54 53° 73° (ENE) 11:11:03 145.865
ISS 27 Apr 11:05:28 11:06:43 12° 133° (SE) 11:08:03 145.825
POPSAT HIP 1 27 Apr 11:06:46 11:10:54 59° 73° (ENE) 11:15:07 437.405
AISAT 27 Apr 11:08:11 11:11:14 18° 91° (E) 11:14:24 437.250
SO-50 27 Apr 11:09:27 11:13:12 25° 114° (ESE) 11:17:09 436.795
DX 1 27 Apr 11:11:04 11:15:07 37° 97° (E) 11:19:12 434.975-435.025
AIST 1 27 Apr 11:14:23 11:17:51 24° 70° (ENE) 11:21:23
CUBEBUG 2 27 Apr 11:21:33 11:26:19 69° 286° (WNW) 11:31:03 437.445
TIGRISAT 27 Apr 11:21:59 11:26:25 51° 261° (W) 11:30:58 435.000
BUGSAT 1 27 Apr 11:22:18 11:26:15 60° 74° (ENE) 11:30:15 437.445
UNISAT 6 27 Apr 11:27:11 11:31:34 44° 262° (W) 11:36:03 437.425
CINEMA 3 27 Apr 11:34:18 11:38:44 32° 292° (WNW) 11:43:10 145.822/145.860
PCSat 27 Apr 11:34:33 11:36:59 13° 335° (NNW) 11:39:17 145.827
DUCHIFAT 1 27 Apr 11:36:08 11:40:19 69° 258° (WSW) 11:44:34 145.980
POLYITAN 1 27 Apr 11:37:19 11:41:31 64° 258° (WSW) 11:45:46 437.675
UWE-3 27 Apr 11:44:10 11:48:43 50° 289° (WNW) 11:53:14 435.000/436.395/437.385
YUBILEINY 27 Apr 11:44:49 11:53:40 81° 280° (W) 12:02:33 435.215
COMPASS 1 27 Apr 11:45:14 11:47:45 15° 297° (WNW) 11:50:07 437.405
FUNcube-1 27 Apr 11:49:01 11:53:32 55° 288° (WNW) 11:58:00 145.935
DELFI C3 27 Apr 11:49:12 11:52:55 35° 290° (WNW) 11:56:34 145.870
AIST 2 27 Apr 11:50:09 11:54:17 46° 48° (NE) 11:58:21 435.215
UKube-1 27 Apr 11:51:30 11:55:52 88° 280° (W) 12:00:12 .
ESTCUBE 1 27 Apr 11:52:39 11:56:30 28° 94° (E) 12:00:25 437.505/2401.250
QB50P1 27 Apr 11:55:05 11:59:05 42° 262° (W) 12:03:08 145.935-145.965
HUMSAT D 27 Apr 11:55:57 12:00:20 87° 284° (WNW) 12:04:39 437.325/437.525
ANTELSAT 27 Apr 12:10:58 12:14:09 18° 271° (W) 12:17:15 437.575/2403.000
Oscar 11 27 Apr 12:11:23 12:14:35 20° 296° (WNW) 12:17:39 145.826/435.025
BEESAT 3 27 Apr 12:13:30 12:17:12 32° 243° (WSW) 12:20:47 437.485
ZACube-1 27 Apr 12:15:30 12:19:35 31° 292° (WNW) 12:23:35 437.345
BEESAT 2 27 Apr 12:17:07 12:20:55 35° 242° (WSW) 12:24:38 435.950
QB50P2 27 Apr 12:22:43 12:26:05 22° 268° (W) 12:29:24 145.880/145.840
VELOX 1 27 Apr 12:25:05 12:29:32 79° 285° (WNW) 12:33:59 145.980
CUBEBUG 1 27 Apr 12:25:15 12:29:32 53° 100° (E) 12:33:50 437.445
50 SAT 27 Apr 12:27:34 12:31:35 61° 287° (WNW) 12:35:33 437.505
HO-68 27 Apr 12:30:43 12:35:10 17° 310° (NW) 12:39:20 435.675
Oscar 19 27 Apr 12:34:28 12:38:24 23° 62° (ENE) 12:42:28 437.125/150
Cosmos 2491 27 Apr 12:36:31 12:42:07 18° 284° (WNW) 12:47:16 435.465 / 435.565
ISS 27 Apr 12:39:21 12:42:36 75° 150° (SSE) 12:45:53 145.825
NANOSAT C BR1 27 Apr 12:40:33 12:43:09 15° 271° (W) 12:45:37 145.865
AISAT 27 Apr 12:43:49 12:48:09 50° 289° (WNW) 12:52:28 437.250
POPSAT HIP 1 27 Apr 12:44:56 12:47:15 14° 272° (W) 12:49:25 437.405
DX 1 27 Apr 12:47:40 12:51:13 24° 295° (WNW) 12:54:43 434.975-435.025
SO-50 27 Apr 12:48:54 12:53:28 50° 313° (NW) 12:58:14 436.795
AIST 1 27 Apr 12:51:45 12:55:35 32° 269° (W) 12:59:22
BUGSAT 1 27 Apr 13:00:22 13:02:13 12° 272° (W) 13:03:54 437.445
TISAT 1 27 Apr 13:01:31 13:05:12 28° 95° (E) 13:08:56 437.305
CUBEBUG 2 27 Apr 13:01:37 13:02:12 10° 303° (WNW) 13:02:32 437.445
Cosmos 2504 27 Apr 13:10:59 13:19:05 43° 88° (E) 13:27:10 435.465 / 435.565
ITAMSAT 1 27 Apr 13:13:56 13:17:15 18° 60° (ENE) 13:20:44 435.822/435.867
AIST 2 27 Apr 13:29:18 13:32:37 22° 246° (WSW) 13:35:49 435.215
ESTCUBE 1 27 Apr 13:29:23 13:33:25 32° 292° (WNW) 13:37:23 437.505/2401.250
UKube-1 27 Apr 13:29:59 13:31:23 11° 301° (WNW) 13:32:35 .
HUMSAT D 27 Apr 13:34:11 13:35:26 11° 301° (WNW) 13:36:29 437.325/437.525
SPROUT 27 Apr 13:38:41 13:43:03 90° 98° (E) 13:47:24 437.525
YUBILEINY 27 Apr 13:45:54 13:52:13 20° 305° (NW) 13:58:11 435.215
Gurwin Techsat 1B 27 Apr 13:52:59 13:57:37 32° 66° (ENE) 14:02:20 435.225
ITUPSAT 1 27 Apr 13:59:19 14:02:46 20° 91° (E) 14:06:20 437.325
CUBEBUG 1 27 Apr 14:02:33 14:05:33 18° 297° (WNW) 14:08:26 437.445
VELOX 1 27 Apr 14:04:31 14:05:25 10° 302° (WNW) 14:06:06 145.980
JAS-2 27 Apr 14:11:54 14:16:07 16° 53° (NE) 14:20:30 435.910
Oscar 19 27 Apr 14:12:22 14:17:26 54° 260° (W) 14:22:32 437.125/150
AO-7 27 Apr 14:14:31 14:20:28 23° 49° (NE) 14:26:39 29.400- 29.500
ISS 27 Apr 14:16:09 14:19:11 33° 349° (N) 14:22:12 145.825
RS-15 27 Apr 14:23:19 14:33:37 53° 114° (ESE) 14:44:15 29.354- 29.394
BEESAT 27 Apr 14:28:16 14:32:43 38° 97° (E) 14:37:09 436.000
SWISSCUBE 27 Apr 14:31:03 14:35:37 44° 98° (E) 14:40:09 437.505
SO-50 27 Apr 14:32:33 14:35:13 14° 336° (NNW) 14:37:50 436.795
TISAT 1 27 Apr 14:37:15 14:40:59 29° 292° (WNW) 14:44:39 437.305
ITAMSAT 1 27 Apr 14:51:04 14:56:15 73° 256° (WSW) 15:01:28 435.822/435.867
Cosmos 2504 27 Apr 15:03:54 15:12:29 49° 288° (WNW) 15:20:50 435.465 / 435.565
PCSat 27 Apr 15:06:31 15:09:09 14° 27° (NNE) 15:11:56 145.827
HORYU 2 27 Apr 15:15:20 15:19:26 36° 68° (ENE) 15:23:35 437.375
SPROUT 27 Apr 15:17:05 15:18:32 11° 300° (WNW) 15:19:47 437.525
KKS-1 27 Apr 15:29:28 15:33:26 31° 95° (E) 15:37:27 437.445
Gurwin Techsat 1B 27 Apr 15:32:36 15:37:33 38° 264° (W) 15:42:29 435.225
ITUPSAT 1 27 Apr 15:36:22 15:41:00 50° 289° (WNW) 15:45:35 437.325
JAS-2 27 Apr 15:52:18 16:00:02 64° 71° (ENE) 16:07:25 435.910
ISS 27 Apr 15:53:05 15:56:04 32° 9° (N) 15:59:03 145.825
AO-7 27 Apr 16:03:58 16:12:15 83° 69° (ENE) 16:20:35 29.400- 29.500
BEESAT 27 Apr 16:06:24 16:10:27 27° 294° (WNW) 16:14:23 436.000
GONETS M04 27 Apr 16:08:48 16:16:36 39° 86° (E) 16:24:37
SWISSCUBE 27 Apr 16:09:24 16:13:15 24° 296° (WNW) 16:17:00 437.505
STARS 27 Apr 16:19:02 16:23:28 63° 101° (ESE) 16:27:53 437.465
CUSAT 1 27 Apr 16:25:37 16:27:33 13° 79° (E) 16:29:57 437.405
RS-15 27 Apr 16:35:22 16:46:05 56° 320° (NW) 16:57:07 29.354- 29.394
PCSat 27 Apr 16:48:44 16:54:00 48° 50° (NE) 16:59:15 145.827
HORYU 2 27 Apr 16:52:24 16:56:10 26° 266° (W) 16:59:55 437.375
Cosmos 2504 27 Apr 17:05:32 17:08:35 12° 313° (NW) 17:11:04 435.465 / 435.565
KKS-1 27 Apr 17:06:06 17:10:04 30° 293° (WNW) 17:13:57 437.445
VERMONT LUNAR 27 Apr 17:10:10 17:12:52 23° 165° (SSE) 17:15:37 437.305
DANDE 27 Apr 17:16:27 17:19:39 29° 87° (E) 17:23:46 436.750
Cosmos 2499 27 Apr 17:28:32 17:34:47 23° 81° (E) 17:41:13 435.465 / 435.565
ISS 27 Apr 17:29:25 17:32:42 90° 242° (WSW) 17:35:58 145.825
JAS-2 27 Apr 17:38:37 17:45:29 31° 269° (W) 17:51:58 435.910
MOZHAYETS 4 27 Apr 17:46:59 17:51:33 60° 100° (E) 17:56:04
CUTE-I 27 Apr 17:55:50 18:00:48 42° 68° (ENE) 18:05:49 437.470
STARS 27 Apr 17:56:40 17:59:29 16° 298° (WNW) 18:02:10 437.465
SO-50 27 Apr 17:58:02 18:00:40 14° 24° (NNE) 18:03:24 436.795
PHONESAT 2.4 27 Apr 17:58:54 18:01:44 22° 162° (SSE) 18:04:34 2401.200-2431.200
AO-7 27 Apr 17:59:42 18:06:08 23° 271° (W) 18:12:16 29.400- 29.500
GONETS M04 27 Apr 18:04:44 18:13:17 52° 287° (WNW) 18:21:52
CUSAT 1 27 Apr 18:05:21 18:09:15 61° 286° (WNW) 18:14:33 437.405
Cubesat XI-IV 27 Apr 18:05:54 18:11:02 52° 70° (ENE) 18:16:13 437.490
PCSat 27 Apr 18:32:33 18:37:14 29° 249° (WSW) 18:41:49 145.827
AUBIESAT-1 27 Apr 18:40:39 18:41:24 11° 90° (E) 18:42:23 437.475
VERMONT LUNAR 27 Apr 18:46:49 18:49:53 32° 181° (S) 18:52:57 437.305
STRAND 1 27 Apr 18:50:30 18:52:17 12° 85° (E) 18:54:21 437.568
RS-15 27 Apr 18:52:07 19:01:36 30° 351° (N) 19:11:21 29.354- 29.394
DANDE 27 Apr 18:59:44 19:03:00 24° 298° (WNW) 19:07:00 436.750
ISS 27 Apr 19:06:43 19:08:41 15° 225° (SW) 19:10:33 145.825
PRISM 27 Apr 19:08:40 19:11:36 19° 92° (E) 19:14:38 437.425
Cosmos 2499 27 Apr 19:18:13 19:27:08 85° 280° (W) 19:35:43 435.465 / 435.565
MOZHAYETS 4 27 Apr 19:25:18 19:28:22 17° 298° (WNW) 19:31:17
HO-68 27 Apr 19:26:15 19:31:55 27° 56° (NE) 19:37:45 435.675
CUBESAT XI-V 27 Apr 19:29:19 19:33:52 57° 100° (E) 19:38:25 437.345
M-CUBED/EXP-1 PRIME 27 Apr 19:32:26 19:36:30 46° 103° (ESE) 19:40:13 437.505
PHONESAT 2.4 27 Apr 19:36:12 19:39:30 34° 179° (S) 19:42:47 2401.200-2431.200
CUTE-I 27 Apr 19:36:27 19:41:03 29° 266° (W) 19:45:36 437.470
SO-50 27 Apr 19:37:36 19:42:26 48° 47° (NE) 19:47:13 436.795
Cubesat XI-IV 27 Apr 19:47:13 19:51:30 23° 268° (W) 19:55:39 437.490
SEEDS 27 Apr 19:57:00 19:59:32 16° 63° (ENE) 20:02:14 437.485
YUBILEINY 27 Apr 19:57:30 20:01:21 14° 48° (NE) 20:05:42 435.215
GOMX 1 27 Apr 20:07:38 20:11:23 31° 67° (ENE) 20:15:22 467.674
CANX-2 27 Apr 20:07:56 20:11:29 26° 67° (ENE) 20:15:06 2200.000
AAUSAT CUBESAT 2 27 Apr 20:09:05 20:11:26 15° 63° (ENE) 20:13:56 437.432
GONETS M04 27 Apr 20:09:26 20:12:57 12° 314° (NW) 20:15:55
AUBIESAT-1 27 Apr 20:12:45 20:16:57 73° 290° (WNW) 20:20:44 437.475
CUTE 1.7 + AOD 2 27 Apr 20:16:35 20:20:15 28° 68° (ENE) 20:24:00 437.475
VERMONT LUNAR 27 Apr 20:24:16 20:26:52 20° 198° (SSW) 20:29:26 437.305
STRAND 1 27 Apr 20:27:11 20:32:20 90° 101° (E) 20:37:27 437.568
BRITE-PL 27 Apr 20:30:49 20:34:59 81° 76° (ENE) 20:39:24 437.365/2234.400
DOVE 4 27 Apr 20:33:22 20:37:22 38° 69° (ENE) 20:41:37 437.250
PRISM 27 Apr 20:43:25 20:47:17 40° 290° (WNW) 20:51:06 437.425
CUBEBUG 2 27 Apr 20:47:26 20:50:15 17° 62° (ENE) 20:53:16 437.445
CINEMA 3 27 Apr 21:01:25 21:05:30 39° 69° (ENE) 21:09:50 145.822/145.860
COMPASS 1 27 Apr 21:01:43 21:05:52 56° 73° (ENE) 21:10:04 437.405
DELFI C3 27 Apr 21:04:51 21:07:47 20° 66° (ENE) 21:10:49 145.870
CUBESAT XI-V 27 Apr 21:07:44 21:10:57 18° 297° (WNW) 21:14:01 437.345
RS-15 27 Apr 21:07:49 21:18:03 38° 25° (NNE) 21:28:50 29.354- 29.394
M-CUBED/EXP-1 PRIME 27 Apr 21:07:56 21:11:02 20° 303° (WNW) 21:13:52 437.505
UWE-3 27 Apr 21:08:17 21:11:39 22° 64° (ENE) 21:15:11 435.000/436.395/437.385
HO-68 27 Apr 21:11:53 21:19:05 74° 255° (WSW) 21:26:19 435.675
FUNcube-1 27 Apr 21:12:15 21:15:20 19° 64° (ENE) 21:18:34 145.935
PHONESAT 2.4 27 Apr 21:14:19 21:17:16 24° 196° (SSW) 21:20:12 2401.200-2431.200
Cosmos 2499 27 Apr 21:15:09 21:21:42 22° 302° (WNW) 21:27:45 435.465 / 435.565
UKube-1 27 Apr 21:15:20 21:17:18 13° 60° (ENE) 21:19:27 .
HUMSAT D 27 Apr 21:17:52 21:19:02 11° 59° (ENE) 21:20:23 437.325/437.525
SO-50 27 Apr 21:18:33 21:22:47 28° 245° (WSW) 21:26:55 436.795
SEEDS 27 Apr 21:30:43 21:34:56 59° 260° (W) 21:39:12 437.485
Oscar 11 27 Apr 21:31:27 21:35:39 49° 72° (ENE) 21:39:54 145.826/435.025
ZACube-1 27 Apr 21:37:33 21:41:29 33° 68° (ENE) 21:45:33 437.345
AAUSAT CUBESAT 2 27 Apr 21:42:26 21:46:38 62° 259° (W) 21:50:50 437.432
50 SAT 27 Apr 21:43:13 21:44:37 12° 61° (ENE) 21:46:12 437.505
CANX-2 27 Apr 21:43:22 21:47:19 33° 265° (W) 21:51:15 2200.000
GOMX 1 27 Apr 21:45:55 21:49:36 27° 267° (W) 21:53:23 467.674
Cosmos 2491 27 Apr 21:47:29 21:53:59 25° 80° (E) 22:00:48 435.465 / 435.565
VELOX 1 27 Apr 21:50:48 21:53:18 15° 61° (ENE) 21:55:58 145.980
YUBILEINY 27 Apr 21:52:05 22:00:43 59° 75° (ENE) 22:09:17 435.215
CUTE 1.7 + AOD 2 27 Apr 21:52:19 21:56:08 30° 265° (W) 21:59:57 437.475
STRAND 1 27 Apr 22:08:05 22:10:53 15° 302° (WNW) 22:13:30 437.568
AISAT 27 Apr 22:08:32 22:11:57 23° 65° (ENE) 22:15:27 437.250
DX 1 27 Apr 22:08:59 22:13:05 44° 70° (ENE) 22:17:15 434.975-435.025
DOVE 4 27 Apr 22:11:52 22:15:20 23° 269° (W) 22:18:53 437.250
CUBEBUG 2 27 Apr 22:22:08 22:26:30 60° 260° (W) 22:31:02 437.445
ANTELSAT 27 Apr 22:25:37 22:25:43 10° 84° (E) 22:26:08 437.575/2403.000
DELFI C3 27 Apr 22:38:48 22:42:41 40° 262° (W) 22:46:34 145.870
CINEMA 3 27 Apr 22:39:19 22:42:54 23° 269° (W) 22:46:33 145.822/145.860
COMPASS 1 27 Apr 22:39:27 22:41:59 15° 271° (W) 22:44:21 437.405
O/OREOS (USA 219) 27 Apr 22:43:36 22:48:11 85° 114° (ESE) 22:52:46 437.305
UWE-3 27 Apr 22:43:42 22:47:55 44° 263° (W) 22:52:17 435.000/436.395/437.385
FUNcube-1 27 Apr 22:47:03 22:51:19 50° 261° (W) 22:55:43 145.935
UKube-1 27 Apr 22:48:36 22:52:55 76° 257° (WSW) 22:57:16 .
HUMSAT D 27 Apr 22:49:53 22:54:09 90° 81° (E) 22:58:29 437.325/437.525
ESTCUBE 1 27 Apr 22:54:38 22:58:43 36° 69° (ENE) 23:02:52 437.505/2401.250
Cosmos 2504 27 Apr 23:01:54 23:06:44 17° 54° (NE) 23:11:43 435.465 / 435.565
SPROUT 27 Apr 23:02:33 23:03:53 11° 60° (ENE) 23:05:23 437.525
HO-68 27 Apr 23:04:31 23:08:14 14° 277° (W) 23:11:30 435.675
Oscar 11 27 Apr 23:09:09 23:12:10 18° 270° (W) 23:15:04 145.826/435.025
TIGRISAT 27 Apr 23:11:28 23:15:33 29° 94° (E) 23:19:38 435.000
ZACube-1 27 Apr 23:14:07 23:17:54 27° 267° (W) 23:21:43 437.345
50 SAT 27 Apr 23:14:53 23:18:53 76° 257° (WSW) 23:22:57 437.505
UNISAT 6 27 Apr 23:16:43 23:21:00 33° 95° (E) 23:25:14 437.425
DUCHIFAT 1 27 Apr 23:19:32 23:22:11 16° 90° (E) 23:24:58 145.980
RS-15 27 Apr 23:20:46 23:32:20 85° 54° (NE) 23:44:26 29.354- 29.394
POLYITAN 1 27 Apr 23:21:12 23:24:07 18° 90° (E) 23:27:09 437.675
CUBEBUG 1 27 Apr 23:23:42 23:27:57 60° 73° (ENE) 23:32:14 437.445
VELOX 1 27 Apr 23:25:03 23:29:25 65° 258° (WSW) 23:33:49 145.980
QB50P1 27 Apr 23:37:53 23:41:28 26° 94° (E) 23:45:06 145.935-145.965
Cosmos 2491 27 Apr 23:41:16 23:50:01 77° 281° (W) 23:58:51 435.465 / 435.565
AISAT 27 Apr 23:44:12 23:48:21 40° 262° (W) 23:52:31 437.250
DX 1 27 Apr 23:46:25 23:49:36 19° 269° (W) 23:52:41 434.975-435.025
AIST 1 27 Apr 23:48:28 23:50:14 13° 85° (E) 23:52:12
YUBILEINY 27 Apr 23:49:31 23:57:10 34° 276° (W) 00:04:35 435.215
TISAT 1 27 Apr 23:56:13 23:59:51 30° 68° (ENE) 00:03:33 437.305
ANTELSAT 27 Apr 23:58:36 00:03:22 85° 103° (ESE) 00:08:01 437.575/2403.000
QB50P2 28 Apr 00:04:27 00:08:38 49° 99° (E) 00:12:50 145.880/145.840
NANOSAT C BR1 28 Apr 00:20:51 00:25:09 72° 102° (ESE) 00:29:26 145.865
POPSAT HIP 1 28 Apr 00:25:08 00:29:28 80° 103° (ESE) 00:33:46 437.405
O/OREOS (USA 219) 28 Apr 00:25:38 00:28:18 15° 314° (NW) 00:30:51 437.305
ESTCUBE 1 28 Apr 00:31:53 00:35:41 26° 266° (W) 00:39:26 437.505/2401.250
SPROUT 28 Apr 00:35:05 00:39:22 87° 256° (WSW) 00:43:41 437.525
BUGSAT 1 28 Apr 00:37:11 00:41:21 76° 102° (ESE) 00:45:34 437.445
TIGRISAT 28 Apr 00:48:04 00:52:21 34° 292° (WNW) 00:56:32 435.000
UNISAT 6 28 Apr 00:53:34 00:57:43 30° 293° (WNW) 01:01:44 437.425
Cosmos 2504 28 Apr 00:53:51 01:01:57 77° 79° (E) 01:09:27 435.465 / 435.565
DUCHIFAT 1 28 Apr 00:54:11 00:58:21 52° 288° (WNW) 01:02:31 145.980
POLYITAN 1 28 Apr 00:56:10 01:00:20 48° 289° (WNW) 01:04:30 437.675
CUBEBUG 1 28 Apr 01:02:21 01:04:48 14° 272° (W) 01:07:04 437.445
ITUPSAT 1 28 Apr 01:08:22 01:12:33 31° 67° (ENE) 01:16:47 437.325
QB50P1 28 Apr 01:13:31 01:17:24 33° 291° (WNW) 01:21:13 145.935-145.965
AIST 1 28 Apr 01:23:09 01:27:25 63° 281° (W) 01:31:40
TISAT 1 28 Apr 01:32:02 01:35:38 27° 265° (W) 01:39:14 437.305
RS-15 28 Apr 01:34:08 01:43:47 31° 254° (WSW) 01:53:20 29.354- 29.394
BEESAT 28 Apr 01:37:01 01:41:43 58° 72° (ENE) 01:46:26 436.000
ANTELSAT 28 Apr 01:37:07 01:39:31 14° 301° (WNW) 01:41:43 437.575/2403.000
SWISSCUBE 28 Apr 01:39:55 01:44:39 67° 73° (ENE) 01:49:25 437.505
QB50P2 28 Apr 01:41:11 01:44:14 19° 296° (WNW) 01:47:09 145.880/145.840
Cosmos 2491 28 Apr 01:42:45 01:48:45 19° 306° (NW) 01:54:25 435.465 / 435.565
NANOSAT C BR1 28 Apr 01:58:16 02:00:30 14° 299° (WNW) 02:02:33 145.865
POPSAT HIP 1 28 Apr 02:02:53 02:04:47 12° 300° (WNW) 02:06:31 437.405
BEESAT 3 28 Apr 02:08:54 02:12:11 24° 115° (ESE) 02:15:33 437.485
DANDE 28 Apr 02:10:47 02:13:00 12° 51° (NE) 02:15:49 436.750
BEESAT 2 28 Apr 02:13:34 02:16:46 23° 115° (ESE) 02:20:04 435.950
BUGSAT 1 28 Apr 02:14:31 02:16:20 12° 299° (WNW) 02:18:00 437.445
GONETS M04 28 Apr 02:15:33 02:22:05 23° 57° (ENE) 02:28:53
Oscar 19 28 Apr 02:21:19 02:26:18 44° 98° (E) 02:31:16 437.125/150
KKS-1 28 Apr 02:29:59 02:34:04 38° 69° (ENE) 02:38:13 437.445
ITUPSAT 1 28 Apr 02:46:05 02:50:25 33° 264° (W) 02:54:44 437.325
Cosmos 2504 28 Apr 02:48:34 02:54:27 22° 280° (W) 02:59:48 435.465 / 435.565
CUSAT 1 28 Apr 02:55:38 03:01:54 28° 63° (ENE) 03:08:53 437.405
ITAMSAT 1 28 Apr 03:01:38 03:06:16 33° 95° (E) 03:10:56 435.822/435.867
BEESAT 28 Apr 03:16:42 03:19:59 18° 270° (W) 03:23:08 436.000
STARS 28 Apr 03:18:12 03:22:35 75° 74° (ENE) 03:27:01 437.465
MOZHAYETS 4 28 Apr 03:18:28 03:19:13 10° 58° (ENE) 03:20:12
SWISSCUBE 28 Apr 03:20:09 03:23:03 15° 272° (W) 03:25:46 437.505
AIST 2 28 Apr 03:28:30 03:32:32 42° 119° (ESE) 03:36:37 435.215
